Location: Beuerbach
(48.1459°N, 10.9174°E)
Time: 02:09:21
(UTC+00:00)

Cosmos 1025 Rocket - Pass Details

Date: 23 May 2024
Orbit: 590 x 614 km, 82.5° (Epoch: 13 June)

Event Time Altitude Azimuth Distance (km) Brightness Sun altitude
Rises 02:39:16 0° 177° (S) 2,869 6.1 -7.2°
Reaches altitude 10° 02:41:30 10° 173° (S) 1,970 5.3 -6.9°
Maximum altitude 02:45:46 57° 95° (E) 731 3.7 -6.4°
Drops below altitude 10° 02:50:05 10° 17° (NNE) 1,985 6.7 -5.9°
Sets 02:52:20 0° 14° (NNE) 2,894 7.5 -5.6°
